Weather History for Jacksonville, FL

Change the Weather History Date:

Friday, February 7, 2014

  Actual Average Record
Temperature  
Mean Temperature 52 °F 55 °F  
Max Temperature 56 °F 67 °F 80 °F (1904)
Min Temperature 47 °F 43 °F 25 °F (1988)
Degree Days  
Heating Degree Days 13 10  
Month to date heating degree days 33 75  
Since 1 July heating degree days 882 951  
Cooling Degree Days 0 1  
Month to date cooling degree days 12 2  
Year to date cooling degree days 21 13  
Moisture  
Dew Point 44 °F    
Average Humidity 82    
Maximum Humidity 100    
Minimum Humidity 63    
Precipitation  
Precipitation 0.03 in 0.10 in 1.89 in (2011)
Month to date precipitation 1.04 0.75  
Year to date precipitation 8.01 4.05  
Snow  
Snow 0.00 in 0.00 in T in (1907)
Month to date snowfall 0.0 0.0  
Since 1 July snowfall 0.0 T  
Snow Depth 0.00 in    
Sea Level Pressure  
Sea Level Pressure 30.23 in    
Wind  
Wind Speed 9 mph (NNE)    
Max Wind Speed 16 mph    
Max Gust Speed 20 mph    
Visibility 9 miles    
Events Rain    
T = Trace of Precipitation, MM = Missing Value Source: NWS Daily Summary

Daily Weather History Graph

Daily Weather History Graph

Search for Another Location

Airport:

Trip Planner

Search our weather history database for the weather conditions in past years. The results will help you decide how hot, cold, wet, or windy it might be!

Date:

Astronomy

Feb. 07, 2014 Rise Set
Actual Time 7:13 AM EST 6:08 PM EST
Civil Twilight 6:48 AM EST 6:33 PM EST
Nautical Twilight 6:20 AM EST 7:01 PM EST
Astronomical Twilight 5:52 AM EST 7:30 PM EST
Moon 12:23 PM EST (2/7) 1:25 AM EST (2/7)
Length of Visible Light 11h 44m
Length of Day
10h 54m
First Quarter, 59% of the Moon is Illuminated
Feb 7
First Quarter
Feb 14
Full
Feb 22
Last Quarter
Mar 1
New
Mar 8
First Quarter

Hourly Weather History & Observations

Time (EST) Temp. Dew Point Humidity Pressure Visibility Wind Dir Wind Speed Gust Speed Precip Events Conditions
12:19 AM 46.9 °F 46.0 °F 97% 30.23 in 9.0 mi North 6.9 mph - 0.01 in   Overcast
12:56 AM 46.9 °F 46.0 °F 97% 30.22 in 9.0 mi NNE 6.9 mph - 0.01 in Rain Light Rain
1:56 AM 48.0 °F 46.0 °F 93% 30.19 in 10.0 mi NNE 5.8 mph - 0.02 in   Overcast
2:56 AM 46.9 °F 46.0 °F 97% 30.19 in 10.0 mi North 5.8 mph - N/A   Overcast
3:56 AM 48.0 °F 46.9 °F 96% 30.19 in 10.0 mi NNW 5.8 mph - N/A   Overcast
4:56 AM 48.0 °F 46.9 °F 96% 30.20 in 10.0 mi North 6.9 mph - N/A   Overcast
5:56 AM 48.0 °F 46.0 °F 93% 30.22 in 6.0 mi NNE 8.1 mph - N/A   Overcast
6:44 AM 46.9 °F 46.0 °F 97% 30.24 in 9.0 mi North 6.9 mph - N/A   Overcast
6:56 AM 46.9 °F 46.0 °F 97% 30.25 in 8.0 mi North 8.1 mph - N/A   Overcast
7:24 AM 46.9 °F 45.0 °F 93% 30.25 in 2.0 mi NNE 9.2 mph - 0.00 in   Light Drizzle
7:45 AM 46.9 °F 46.0 °F 97% 30.25 in 4.0 mi NNE 6.9 mph - 0.00 in   Overcast
7:56 AM 46.9 °F 45.0 °F 93% 30.25 in 6.0 mi NNE 6.9 mph - 0.00 in   Overcast
8:34 AM 46.9 °F 45.0 °F 93% 30.26 in 9.0 mi North 6.9 mph - N/A   Overcast
8:45 AM 46.9 °F 45.0 °F 93% 30.26 in 9.0 mi North 8.1 mph - N/A   Overcast
8:56 AM 46.9 °F 45.0 °F 93% 30.27 in 9.0 mi North 6.9 mph - N/A   Overcast
9:41 AM 48.0 °F 45.0 °F 89% 30.28 in 10.0 mi NNE 9.2 mph - N/A   Overcast
9:56 AM 48.9 °F 45.0 °F 86% 30.28 in 10.0 mi NE 10.4 mph - N/A   Overcast
10:56 AM 52.0 °F 45.0 °F 77% 30.29 in 10.0 mi NE 11.5 mph - N/A   Overcast
11:56 AM 54.0 °F 45.0 °F 72% 30.27 in 10.0 mi NE 12.7 mph - N/A   Overcast
12:56 PM 55.9 °F 45.0 °F 67% 30.24 in 10.0 mi NE 13.8 mph - N/A   Overcast
1:56 PM 55.0 °F 44.1 °F 67% 30.22 in 10.0 mi NE 11.5 mph - N/A   Overcast
2:56 PM 54.0 °F 44.1 °F 69% 30.22 in 10.0 mi NNE 13.8 mph - N/A   Overcast
3:56 PM 52.0 °F 39.9 °F 63% 30.22 in 10.0 mi NNE 10.4 mph - N/A   Overcast
4:56 PM 51.1 °F 41.0 °F 68% 30.22 in 10.0 mi NNE 11.5 mph - N/A   Overcast
5:17 PM 51.1 °F 41.0 °F 68% 30.22 in 10.0 mi NE 9.2 mph - N/A   Overcast
5:56 PM 51.1 °F 42.1 °F 71% 30.23 in 10.0 mi NE 9.2 mph - N/A   Overcast
6:56 PM 50.0 °F 39.9 °F 68% 30.23 in 10.0 mi NE 8.1 mph - N/A   Overcast
7:56 PM 50.0 °F 42.1 °F 74% 30.24 in 10.0 mi NE 8.1 mph - N/A   Overcast
8:56 PM 50.0 °F 43.0 °F 77% 30.23 in 10.0 mi NE 9.2 mph - N/A   Mostly Cloudy
9:56 PM 51.1 °F 44.1 °F 77% 30.23 in 10.0 mi NNE 5.8 mph - N/A   Overcast
10:56 PM 51.1 °F 45.0 °F 80% 30.22 in 10.0 mi NE 6.9 mph - N/A   Overcast
11:56 PM 51.1 °F 45.0 °F 80% 30.19 in 10.0 mi NE 8.1 mph - N/A   Mostly Cloudy